Location: Kailua
(21.4020°N, 157.7390°W)
Time: 09:21:58
(UTC-10:00)

Cosmos 2221 Rocket - Visible Passes

Search period start: 27 May 2018 00:00
Search period end: 06 June 2018 00:00
Orbit: 620 x 649 km, 82.5° (Epoch: 27 May)

Date Brightness Start Highest point End Pass type
(mag) Time Alt. Az. Time Alt. Az. Time Alt. Az.
29 May 6.6 05:18:34 10° NE 05:21:40 19° E 05:24:46 10° SE visible
01 Jun 6.7 04:47:38 10° NE 04:50:02 14° E 04:52:28 10° ESE visible
02 Jun 5.4 05:08:17 10° NNE 05:12:20 35° E 05:16:21 10° SSE visible
04 Jun 6.9 04:17:13 10° ENE 04:18:25 11° E 04:19:37 10° E visible
05 Jun 5.8 04:36:59 10° NNE 04:40:43 27° E 04:44:27 10° SE visible
